When you browse on this site, cookies collect data to enhance your experience and personalize the content and advertising you see.
Visit our Privacy Policy to learn more. By continuing to use the site, you agree to this use of cookies and data.
  • In Hungary
  • List of Countries
  • For 7 days
  • Water Temperature
  • Satellite Maps
  • Weather Map
  • News
  • Weather Widgets
  • user-avatar
    Login

    Hourly Weather Mirgorod

    Today, 21 April, Sunday

    Time Temperature Precipitation Wind Pressure Humidity
    00:00 +9°C° 0 mm 0 mps 759 mmHg 49%
    01:00 +10°C° 0 mm 1 mps 759 mmHg 49%
    02:00 +10°C° 0 mm 1 mps 759 mmHg 49%
    03:00 +10°C° 0 mm 1 mps 759 mmHg 49%
    04:00 +10°C° 0 mm 1 mps 759 mmHg 50%
    05:00 +9°C° 0 mm 1 mps 759 mmHg 51%
    06:00 +9°C° 0 mm 2 mps 759 mmHg 49%
    07:00 +12°C° 0 mm 2 mps 759 mmHg 47%
    08:00 +13°C° 0 mm 2 mps 759 mmHg 45%
    09:00 +13°C° 0 mm 2 mps 759 mmHg 41%
    10:00 +13°C° 0 mm 3 mps 759 mmHg 36%
    11:00 +14°C° 0 mm 3 mps 759 mmHg 32%
    12:00 +14°C° 0 mm 3 mps 759 mmHg 33%
    13:00 +14°C° 0 mm 3 mps 759 mmHg 34%
    14:00 +14°C° 0 mm 3 mps 759 mmHg 35%
    15:00 +14°C° 0 mm 3 mps 759 mmHg 36%
    16:00 +14°C° 0 mm 3 mps 759 mmHg 37%
    17:00 +14°C° 0 mm 3 mps 759 mmHg 38%
    18:00 +12°C° 0 mm 3 mps 759 mmHg 41%
    19:00 +12°C° 0 mm 2 mps 760 mmHg 44%
    20:00 +10°C° 0 mm 2 mps 760 mmHg 48%
    21:00 +10°C° 0 mm 2 mps 760 mmHg 49%
    22:00 +9°C° 0 mm 2 mps 760 mmHg 49%
    23:00 +9°C° 0 mm 2 mps 760 mmHg 50%

    Tomorrow, 22 April, Monday

    Time Temperature Precipitation Wind Pressure Humidity
    00:00 +9°C° 0 mm 2 mps 760 mmHg 50%
    01:00 +8°C° 0 mm 2 mps 761 mmHg 51%
    02:00 +8°C° 0 mm 2 mps 761 mmHg 51%
    03:00 +8°C° 0 mm 2 mps 761 mmHg 52%
    04:00 +8°C° 0 mm 2 mps 761 mmHg 53%
    05:00 +8°C° 0 mm 2 mps 761 mmHg 54%
    06:00 +9°C° 0 mm 3 mps 761 mmHg 51%
    07:00 +11°C° 0 mm 3 mps 762 mmHg 49%
    08:00 +12°C° 0 mm 3 mps 762 mmHg 47%
    09:00 +13°C° 0 mm 3 mps 762 mmHg 43%
    10:00 +13°C° 0 mm 3 mps 762 mmHg 38%
    11:00 +14°C° 0 mm 4 mps 762 mmHg 34%
    12:00 +16°C° 0 mm 3 mps 762 mmHg 34%
    13:00 +16°C° 0 mm 3 mps 762 mmHg 34%
    14:00 +16°C° 0 mm 3 mps 762 mmHg 34%
    15:00 +16°C° 0 mm 3 mps 762 mmHg 35%
    16:00 +16°C° 0 mm 2 mps 762 mmHg 36%
    17:00 +15°C° 0 mm 2 mps 762 mmHg 38%
    18:00 +14°C° 0 mm 2 mps 762 mmHg 41%
    19:00 +13°C° 0 mm 2 mps 762 mmHg 44%
    20:00 +12°C° 0 mm 2 mps 762 mmHg 47%
    21:00 +12°C° 0 mm 2 mps 762 mmHg 49%
    22:00 +10°C° 0 mm 2 mps 763 mmHg 51%
    23:00 +10°C° 0 mm 2 mps 763 mmHg 52%

    Day after tomorrow, 23 April, Tuesday

    Time Temperature Precipitation Wind Pressure Humidity
    00:00 +10°C° 0 mm 2 mps 763 mmHg 55%
    01:00 +9°C° 0 mm 2 mps 763 mmHg 57%
    02:00 +9°C° 0 mm 2 mps 763 mmHg 60%
    03:00 +9°C° 0 mm 2 mps 763 mmHg 61%
    04:00 +9°C° 0 mm 2 mps 763 mmHg 61%
    05:00 +9°C° 0 mm 2 mps 764 mmHg 62%
    06:00 +10°C° 0 mm 2 mps 764 mmHg 59%
    07:00 +13°C° 0 mm 2 mps 764 mmHg 55%
    08:00 +14°C° 0 mm 2 mps 764 mmHg 52%
    09:00 +15°C° 0 mm 2 mps 764 mmHg 47%
    10:00 +16°C° 0 mm 3 mps 764 mmHg 42%
    11:00 +16°C° 0 mm 3 mps 764 mmHg 37%
    12:00 +16°C° 0 mm 2 mps 764 mmHg 38%
    13:00 +16°C° 0 mm 2 mps 764 mmHg 39%
    14:00 +16°C° 0 mm 2 mps 764 mmHg 39%
    15:00 +16°C° 0 mm 2 mps 764 mmHg 41%
    16:00 +16°C° 0 mm 2 mps 763 mmHg 42%
    17:00 +16°C° 0 mm 2 mps 763 mmHg 43%
    18:00 +16°C° 0 mm 1 mps 763 mmHg 45%
    19:00 +15°C° 0 mm 1 mps 764 mmHg 47%
    20:00 +14°C° 0 mm 1 mps 764 mmHg 49%
    21:00 +13°C° 0 mm 1 mps 764 mmHg 50%
    22:00 +13°C° 0 mm 1 mps 764 mmHg 52%
    23:00 +12°C° 0 mm 1 mps 764 mmHg 53%

    24 April, Wednesday

    Time Temperature Precipitation Wind Pressure Humidity
    00:00 +12°C° 0 mm 1 mps 764 mmHg 54%
    01:00 +11°C° 0 mm 0 mps 764 mmHg 54%
    02:00 +11°C° 0 mm 0 mps 764 mmHg 55%
    03:00 +11°C° 0 mm 0 mps 764 mmHg 56%
    04:00 +10°C° 0 mm 0 mps 764 mmHg 57%
    05:00 +10°C° 0 mm 0 mps 764 mmHg 58%
    06:00 +13°C° 0 mm 1 mps 764 mmHg 54%
    07:00 +14°C° 0 mm 1 mps 765 mmHg 51%
    08:00 +15°C° 0 mm 1 mps 765 mmHg 47%
    09:00 +16°C° 0 mm 1 mps 764 mmHg 44%
    10:00 +17°C° 0 mm 2 mps 764 mmHg 40%
    11:00 +18°C° 0 mm 2 mps 764 mmHg 36%
    12:00 +18°C° 0 mm 2 mps 764 mmHg 36%
    13:00 +20°C° 0 mm 1 mps 764 mmHg 35%
    14:00 +20°C° 0 mm 1 mps 763 mmHg 35%
    15:00 +20°C° 0 mm 1 mps 763 mmHg 35%
    16:00 +20°C° 0 mm 1 mps 763 mmHg 36%
    17:00 +18°C° 0 mm 0 mps 763 mmHg 36%
    18:00 +18°C° 0 mm 1 mps 763 mmHg 41%
    19:00 +15°C° 0 mm 1 mps 763 mmHg 45%
    20:00 +14°C° 0 mm 1 mps 763 mmHg 50%
    21:00 +13°C° 0 mm 1 mps 763 mmHg 52%
    22:00 +13°C° 0 mm 1 mps 763 mmHg 54%
    23:00 +12°C° 0 mm 1 mps 763 mmHg 56%

    25 April, Thursday

    Time Temperature Precipitation Wind Pressure Humidity
    00:00 +12°C° 0 mm 1 mps 763 mmHg 57%
    01:00 +12°C° 0 mm 1 mps 763 mmHg 58%
    02:00 +11°C° 0 mm 1 mps 763 mmHg 59%
    03:00 +11°C° 0 mm 1 mps 763 mmHg 60%
    04:00 +11°C° 0 mm 1 mps 763 mmHg 61%
    05:00 +11°C° 0 mm 1 mps 763 mmHg 62%
    06:00 +13°C° 0 mm 1 mps 764 mmHg 58%
    07:00 +15°C° 0 mm 1 mps 764 mmHg 53%
    08:00 +16°C° 0 mm 0 mps 764 mmHg 48%
    09:00 +19°C° 0 mm 1 mps 763 mmHg 45%
    10:00 +20°C° 0 mm 1 mps 763 mmHg 41%
    11:00 +22°C° 0 mm 1 mps 763 mmHg 38%
    12:00 +22°C° 0 mm 1 mps 763 mmHg 38%
    13:00 +21°C° 0 mm 2 mps 762 mmHg 37%
    14:00 +23°C° 0 mm 2 mps 762 mmHg 37%
    15:00 +21°C° 0 mm 2 mps 762 mmHg 39%
    16:00 +21°C° 0 mm 2 mps 761 mmHg 41%
    17:00 +21°C° 0 mm 2 mps 761 mmHg 42%
    18:00 +19°C° 0 mm 2 mps 761 mmHg 46%
    19:00 +19°C° 0 mm 1 mps 761 mmHg 50%
    20:00 +18°C° 0 mm 1 mps 761 mmHg 53%
    21:00 +16°C° 0 mm 1 mps 761 mmHg 56%
    22:00 +15°C° 0 mm 1 mps 760 mmHg 58%
    23:00 +14°C° 0 mm 2 mps 760 mmHg 61%

    26 April, Friday

    Time Temperature Precipitation Wind Pressure Humidity
    00:00 +14°C° 0 mm 2 mps 760 mmHg 63%
    01:00 +13°C° 0 mm 2 mps 760 mmHg 66%
    02:00 +13°C° 0 mm 2 mps 760 mmHg 68%
    03:00 +13°C° 0 mm 2 mps 760 mmHg 69%
    04:00 +12°C° 0 mm 2 mps 760 mmHg 70%
    05:00 +12°C° 0 mm 2 mps 759 mmHg 71%
    06:00 +14°C° 0 mm 2 mps 759 mmHg 66%
    07:00 +16°C° 0 mm 2 mps 759 mmHg 61%
    08:00 +17°C° 0 mm 3 mps 759 mmHg 55%
    09:00 +19°C° 0 mm 4 mps 759 mmHg 52%
    10:00 +20°C° 0 mm 4 mps 758 mmHg 48%
    11:00 +21°C° 0 mm 5 mps 758 mmHg 45%
    12:00 +21°C° 0 mm 5 mps 758 mmHg 44%
    13:00 +22°C° 0 mm 6 mps 757 mmHg 44%
    14:00 +22°C° 0 mm 6 mps 757 mmHg 43%
    15:00 +22°C° 0 mm 5 mps 756 mmHg 45%
    16:00 +22°C° 0 mm 5 mps 756 mmHg 48%
    17:00 +21°C° 0 mm 4 mps 755 mmHg 50%
    18:00 +20°C° 0 mm 4 mps 755 mmHg 54%
    19:00 +18°C° 0 mm 3 mps 755 mmHg 59%
    20:00 +17°C° 0 mm 3 mps 755 mmHg 63%
    21:00 +16°C° 0 mm 3 mps 755 mmHg 65%
    22:00 +15°C° 0 mm 4 mps 755 mmHg 67%
    23:00 +14°C° 0 mm 4 mps 755 mmHg 69%
    Show more